Time,TemperatureF,DewpointF,PressureIn,WindDirection,WindDirectionDegrees,WindSpeedMPH,WindSpeedGustMPH,Humidity,HourlyPrecipIn,Conditions,Clouds,dailyrainin,SoftwareType,DateUTC
2013-03-04 00:01:00,29.7,18.0,29.67,West,270,1.2,5.6,59,0.00,,,0.00,Rainwise IP-100,2013-03-04 05:01:00,
2013-03-04 00:02:00,29.7,18.0,29.66,WSW,247,1.6,5.6,59,0.00,,,0.00,Rainwise IP-100,2013-03-04 05:02:00,
2013-03-04 00:03:00,29.7,18.0,29.66,SW,225,1.6,5.6,59,0.00,,,0.00,Rainwise IP-100,2013-03-04 05:03:00,
2013-03-04 00:08:00,29.7,18.0,29.66,West,270,2.1,5.6,59,0.00,,,0.00,Rainwise IP-100,2013-03-04 05:08:00,
2013-03-04 00:09:00,29.7,18.0,29.66,WSW,247,1.9,5.6,59,0.00,,,0.00,Rainwise IP-100,2013-03-04 05:09:00,
2013-03-04 00:14:00,29.8,18.0,29.66,West,270,2.1,6.3,59,0.00,,,0.00,Rainwise IP-100,2013-03-04 05:14:00,
2013-03-04 00:19:00,29.9,18.0,29.66,WSW,247,0.0,4.2,59,0.00,,,0.00,Rainwise IP-100,2013-03-04 05:19:00,
2013-03-04 00:24:00,29.9,18.0,29.67,SW,225,1.2,4.2,59,0.00,,,0.00,Rainwise IP-100,2013-03-04 05:24:00,
2013-03-04 00:29:00,29.9,18.0,29.66,WSW,247,2.1,5.1,59,0.00,,,0.00,Rainwise IP-100,2013-03-04 05:29:00,
2013-03-04 00:34:00,29.8,18.0,29.67,West,270,5.8,5.8,59,0.00,,,0.00,Rainwise IP-100,2013-03-04 05:34:00,
2013-03-04 00:39:00,29.8,18.0,29.67,WSW,247,2.3,5.8,59,0.00,,,0.00,Rainwise IP-100,2013-03-04 05:39:00,
2013-03-04 00:44:00,29.7,18.0,29.66,SW,225,1.6,5.1,59,0.00,,,0.00,Rainwise IP-100,2013-03-04 05:44:00,
2013-03-04 00:49:00,29.8,18.0,29.67,WSW,247,3.0,5.1,59,0.00,,,0.00,Rainwise IP-100,2013-03-04 05:49:00,
2013-03-04 00:54:00,29.8,18.0,29.67,WSW,247,1.2,6.1,59,0.00,,,0.00,Rainwise IP-100,2013-03-04 05:54:00,
2013-03-04 01:00:00,29.8,18.0,29.67,WSW,247,1.6,4.9,59,0.00,,,0.00,Rainwise IP-100,2013-03-04 06:00:00,
2013-03-04 01:05:00,29.7,18.0,29.67,WNW,292,0.0,5.8,59,0.00,,,0.00,Rainwise IP-100,2013-03-04 06:05:00,
2013-03-04 01:10:00,29.6,18.0,29.67,SSW,202,1.9,6.8,59,0.00,,,0.00,Rainwise IP-100,2013-03-04 06:10:00,
2013-03-04 01:15:00,29.5,18.0,29.67,WSW,247,1.9,5.4,59,0.00,,,0.00,Rainwise IP-100,2013-03-04 06:15:00,
2013-03-04 01:20:00,29.4,18.0,29.67,WSW,247,1.6,6.5,60,0.00,,,0.00,Rainwise IP-100,2013-03-04 06:20:00,
2013-03-04 01:25:00,29.4,18.0,29.67,West,270,3.5,5.8,60,0.00,,,0.00,Rainwise IP-100,2013-03-04 06:25:00,
2013-03-04 01:30:00,29.3,18.0,29.67,WSW,247,3.5,5.6,60,0.00,,,0.00,Rainwise IP-100,2013-03-04 06:30:00,
2013-03-04 01:35:00,29.4,18.0,29.67,WSW,247,1.9,6.8,60,0.00,,,0.00,Rainwise IP-100,2013-03-04 06:35:00,
2013-03-04 01:40:00,29.3,18.0,29.67,SW,225,2.8,6.1,60,0.00,,,0.00,Rainwise IP-100,2013-03-04 06:40:00,
2013-03-04 01:45:00,29.3,18.0,29.67,SW,225,2.3,4.4,60,0.00,,,0.00,Rainwise IP-100,2013-03-04 06:45:00,
2013-03-04 01:50:00,29.3,18.0,29.67,WSW,247,2.8,3.7,61,0.00,,,0.00,Rainwise IP-100,2013-03-04 06:50:00,
2013-03-04 01:56:00,29.2,18.0,29.67,SSW,202,0.0,4.4,61,0.00,,,0.00,Rainwise IP-100,2013-03-04 06:56:00,
2013-03-04 02:01:00,29.2,18.0,29.67,WSW,247,0.0,3.3,61,0.00,,,0.00,Rainwise IP-100,2013-03-04 07:01:00,
2013-03-04 02:06:00,29.1,18.0,29.67,WSW,247,1.6,6.8,61,0.00,,,0.00,Rainwise IP-100,2013-03-04 07:06:00,
2013-03-04 02:11:00,28.9,18.0,29.67,WSW,247,2.1,2.3,62,0.00,,,0.00,Rainwise IP-100,2013-03-04 07:11:00,
2013-03-04 02:16:00,28.8,18.0,29.67,SW,225,1.4,3.0,62,0.00,,,0.00,Rainwise IP-100,2013-03-04 07:16:00,
2013-03-04 02:21:00,28.7,18.0,29.67,SW,225,1.4,5.1,62,0.00,,,0.00,Rainwise IP-100,2013-03-04 07:21:00,
2013-03-04 02:26:00,28.7,18.0,29.67,SSW,202,1.9,4.7,62,0.00,,,0.00,Rainwise IP-100,2013-03-04 07:26:00,
2013-03-04 02:31:00,28.6,18.0,29.67,WSW,247,0.0,4.0,62,0.00,,,0.00,Rainwise IP-100,2013-03-04 07:31:00,
2013-03-04 02:36:00,28.6,18.0,29.67,WSW,247,0.0,4.7,62,0.00,,,0.00,Rainwise IP-100,2013-03-04 07:36:00,
2013-03-04 02:41:00,28.4,16.0,29.67,West,270,2.1,5.1,63,0.00,,,0.00,Rainwise IP-100,2013-03-04 07:41:00,
2013-03-04 02:46:00,28.4,16.0,29.66,WSW,247,3.7,5.6,63,0.00,,,0.00,Rainwise IP-100,2013-03-04 07:46:00,
2013-03-04 02:51:00,28.4,16.0,29.67,SW,225,1.2,4.2,63,0.00,,,0.00,Rainwise IP-100,2013-03-04 07:51:00,
2013-03-04 02:57:00,28.4,16.0,29.67,SW,225,0.0,4.2,63,0.00,,,0.00,Rainwise IP-100,2013-03-04 07:57:00,
2013-03-04 03:02:00,28.4,16.0,29.67,WSW,247,2.1,5.4,63,0.00,,,0.00,Rainwise IP-100,2013-03-04 08:02:00,
2013-03-04 03:07:00,28.4,16.0,29.67,SW,225,1.4,4.4,63,0.00,,,0.00,Rainwise IP-100,2013-03-04 08:07:00,
2013-03-04 03:12:00,28.4,16.0,29.66,SSW,202,0.0,5.6,63,0.00,,,0.00,Rainwise IP-100,2013-03-04 08:12:00,
2013-03-04 03:17:00,28.4,16.0,29.67,SW,225,3.7,3.7,63,0.00,,,0.00,Rainwise IP-100,2013-03-04 08:17:00,
2013-03-04 03:22:00,28.4,16.0,29.67,WSW,247,1.4,3.7,63,0.00,,,0.00,Rainwise IP-100,2013-03-04 08:22:00,
2013-03-04 03:27:00,28.4,16.0,29.67,WSW,247,1.4,3.0,63,0.00,,,0.00,Rainwise IP-100,2013-03-04 08:27:00,
2013-03-04 03:32:00,28.4,18.0,29.66,WSW,247,1.4,6.3,64,0.00,,,0.00,Rainwise IP-100,2013-03-04 08:32:00,
2013-03-04 03:37:00,28.5,18.0,29.67,WSW,247,1.4,5.8,64,0.00,,,0.00,Rainwise IP-100,2013-03-04 08:37:00,
2013-03-04 03:42:00,28.6,18.0,29.67,SSW,202,1.2,4.2,64,0.00,,,0.00,Rainwise IP-100,2013-03-04 08:42:00,
2013-03-04 03:47:00,28.6,18.0,29.67,WSW,247,0.0,3.5,64,0.00,,,0.00,Rainwise IP-100,2013-03-04 08:47:00,
2013-03-04 03:52:00,28.7,18.0,29.67,SW,225,1.2,2.1,64,0.00,,,0.00,Rainwise IP-100,2013-03-04 08:52:00,
2013-03-04 03:58:00,28.6,18.0,29.67,WSW,247,0.0,5.4,63,0.00,,,0.00,Rainwise IP-100,2013-03-04 08:58:00,
2013-03-04 04:03:00,28.6,18.0,29.67,WSW,247,1.9,3.3,63,0.00,,,0.00,Rainwise IP-100,2013-03-04 09:03:00,
2013-03-04 04:08:00,28.6,18.0,29.67,WSW,247,1.9,3.7,64,0.00,,,0.00,Rainwise IP-100,2013-03-04 09:08:00,
2013-03-04 04:13:00,28.7,18.0,29.67,WSW,247,1.2,4.2,63,0.00,,,0.00,Rainwise IP-100,2013-03-04 09:13:00,
2013-03-04 04:18:00,28.8,18.0,29.67,SSW,202,0.0,3.5,63,0.00,,,0.00,Rainwise IP-100,2013-03-04 09:18:00,
2013-03-04 04:23:00,28.8,18.0,29.67,WSW,247,1.6,3.3,64,0.00,,,0.00,Rainwise IP-100,2013-03-04 09:23:00,
2013-03-04 04:28:00,28.8,18.0,29.68,SSW,202,3.5,3.5,64,0.00,,,0.00,Rainwise IP-100,2013-03-04 09:28:00,
2013-03-04 04:33:00,28.9,18.0,29.68,WSW,247,0.0,3.5,64,0.00,,,0.00,Rainwise IP-100,2013-03-04 09:33:00,
2013-03-04 04:38:00,28.9,18.0,29.68,WSW,247,2.8,3.5,64,0.00,,,0.00,Rainwise IP-100,2013-03-04 09:38:00,
2013-03-04 04:43:00,29.0,18.0,29.68,WSW,247,1.6,5.8,64,0.00,,,0.00,Rainwise IP-100,2013-03-04 09:43:00,
2013-03-04 04:48:00,29.0,18.0,29.68,SSW,202,1.6,3.3,64,0.00,,,0.00,Rainwise IP-100,2013-03-04 09:48:00,
2013-03-04 04:53:00,29.0,18.0,29.69,SW,225,1.9,4.2,64,0.00,,,0.00,Rainwise IP-100,2013-03-04 09:53:00,
2013-03-04 04:59:00,29.0,18.0,29.68,SW,225,3.5,4.4,64,0.00,,,0.00,Rainwise IP-100,2013-03-04 09:59:00,
2013-03-04 05:04:00,29.0,18.0,29.69,SW,225,3.3,8.2,64,0.00,,,0.00,Rainwise IP-100,2013-03-04 10:04:00,
2013-03-04 05:09:00,29.0,18.0,29.69,WSW,247,1.9,9.3,64,0.00,,,0.00,Rainwise IP-100,2013-03-04 10:09:00,
2013-03-04 05:14:00,29.0,18.0,29.69,SW,225,0.0,6.8,64,0.00,,,0.00,Rainwise IP-100,2013-03-04 10:14:00,
2013-03-04 05:19:00,28.9,18.0,29.69,West,270,0.0,4.9,64,0.00,,,0.00,Rainwise IP-100,2013-03-04 10:19:00,
2013-03-04 05:24:00,28.8,18.0,29.69,WSW,247,2.3,5.4,64,0.00,,,0.00,Rainwise IP-100,2013-03-04 10:24:00,
2013-03-04 05:29:00,28.7,18.0,29.70,WSW,247,0.0,3.7,64,0.00,,,0.00,Rainwise IP-100,2013-03-04 10:29:00,
2013-03-04 05:34:00,28.7,18.0,29.69,WSW,247,2.1,6.3,64,0.00,,,0.00,Rainwise IP-100,2013-03-04 10:34:00,
2013-03-04 05:39:00,28.6,18.0,29.70,WSW,247,0.0,5.6,64,0.00,,,0.00,Rainwise IP-100,2013-03-04 10:39:00,
2013-03-04 05:44:00,28.5,18.0,29.70,SSW,202,2.1,6.5,64,0.00,,,0.00,Rainwise IP-100,2013-03-04 10:44:00,
2013-03-04 05:49:00,28.5,18.0,29.70,SW,225,0.0,3.3,64,0.00,,,0.00,Rainwise IP-100,2013-03-04 10:49:00,
2013-03-04 05:54:00,28.3,18.0,29.71,WSW,247,2.6,4.9,64,0.00,,,0.00,Rainwise IP-100,2013-03-04 10:54:00,
2013-03-04 06:00:00,28.2,18.0,29.70,WSW,247,0.0,6.3,64,0.00,,,0.00,Rainwise IP-100,2013-03-04 11:00:00,
2013-03-04 06:05:00,28.3,16.0,29.71,West,270,4.2,5.4,63,0.00,,,0.00,Rainwise IP-100,2013-03-04 11:05:00,
2013-03-04 06:10:00,28.2,16.0,29.71,SW,225,1.2,5.6,63,0.00,,,0.00,Rainwise IP-100,2013-03-04 11:10:00,
2013-03-04 06:15:00,28.2,16.0,29.71,WSW,247,0.0,5.1,63,0.00,,,0.00,Rainwise IP-100,2013-03-04 11:15:00,
2013-03-04 06:20:00,28.1,16.0,29.70,SW,225,0.0,4.2,62,0.00,,,0.00,Rainwise IP-100,2013-03-04 11:20:00,
2013-03-04 06:25:00,28.1,16.0,29.71,WSW,247,1.6,4.7,62,0.00,,,0.00,Rainwise IP-100,2013-03-04 11:25:00,
2013-03-04 06:30:00,28.1,16.0,29.71,SW,225,1.9,2.8,62,0.00,,,0.00,Rainwise IP-100,2013-03-04 11:30:00,
2013-03-04 06:35:00,27.9,16.0,29.71,WSW,247,3.0,3.0,62,0.00,,,0.00,Rainwise IP-100,2013-03-04 11:35:00,
2013-03-04 06:40:00,27.7,16.0,29.71,SW,225,2.3,4.7,62,0.00,,,0.00,Rainwise IP-100,2013-03-04 11:40:00,
2013-03-04 06:45:00,27.8,16.0,29.72,WSW,247,1.6,5.4,63,0.00,,,0.00,Rainwise IP-100,2013-03-04 11:45:00,
2013-03-04 06:50:00,27.7,16.0,29.72,WSW,247,1.9,3.3,63,0.00,,,0.00,Rainwise IP-100,2013-03-04 11:50:00,
2013-03-04 06:56:00,27.7,16.0,29.72,WSW,247,1.2,6.5,62,0.00,,,0.00,Rainwise IP-100,2013-03-04 11:56:00,
2013-03-04 07:01:00,27.8,16.0,29.72,WSW,247,1.2,6.1,62,0.00,,,0.00,Rainwise IP-100,2013-03-04 12:01:00,
2013-03-04 07:06:00,27.9,16.0,29.72,SW,225,0.0,4.2,61,0.00,,,0.00,Rainwise IP-100,2013-03-04 12:06:00,
2013-03-04 07:11:00,27.9,16.0,29.73,WSW,247,4.2,7.0,61,0.00,,,0.00,Rainwise IP-100,2013-03-04 12:11:00,
2013-03-04 07:16:00,28.0,16.0,29.73,SSW,202,0.0,7.2,60,0.00,,,0.00,Rainwise IP-100,2013-03-04 12:16:00,
2013-03-04 07:21:00,28.1,16.0,29.73,SW,225,1.4,4.4,59,0.00,,,0.00,Rainwise IP-100,2013-03-04 12:21:00,
2013-03-04 07:26:00,28.2,16.0,29.73,WSW,247,3.0,5.6,59,0.00,,,0.00,Rainwise IP-100,2013-03-04 12:26:00,
2013-03-04 07:31:00,28.3,16.0,29.73,WSW,247,1.4,5.8,58,0.00,,,0.00,Rainwise IP-100,2013-03-04 12:31:00,
2013-03-04 07:36:00,28.4,16.0,29.73,WSW,247,2.3,5.8,58,0.00,,,0.00,Rainwise IP-100,2013-03-04 12:36:00,
2013-03-04 07:41:00,28.5,16.0,29.73,SW,225,3.0,4.7,58,0.00,,,0.00,Rainwise IP-100,2013-03-04 12:41:00,
2013-03-04 07:46:00,28.7,16.0,29.74,WSW,247,4.0,4.2,57,0.00,,,0.00,Rainwise IP-100,2013-03-04 12:46:00,
2013-03-04 07:51:00,29.2,16.0,29.74,WSW,247,0.0,4.2,56,0.00,,,0.00,Rainwise IP-100,2013-03-04 12:51:00,
2013-03-04 07:57:00,29.6,16.0,29.75,WSW,247,2.8,5.1,55,0.00,,,0.00,Rainwise IP-100,2013-03-04 12:57:00,
2013-03-04 08:02:00,30.1,16.0,29.74,SSW,202,4.7,7.5,54,0.00,,,0.00,Rainwise IP-100,2013-03-04 13:02:00,
2013-03-04 08:07:00,30.4,16.0,29.74,WSW,247,2.3,6.5,54,0.00,,,0.00,Rainwise IP-100,2013-03-04 13:07:00,
2013-03-04 08:12:00,30.7,16.0,29.75,West,270,0.0,8.6,53,0.00,,,0.00,Rainwise IP-100,2013-03-04 13:12:00,
2013-03-04 08:17:00,30.9,16.0,29.75,WSW,247,1.9,7.9,52,0.00,,,0.00,Rainwise IP-100,2013-03-04 13:17:00,
2013-03-04 08:22:00,30.9,16.0,29.75,WSW,247,2.8,11.2,52,0.00,,,0.00,Rainwise IP-100,2013-03-04 13:22:00,
2013-03-04 08:27:00,30.9,16.0,29.75,WSW,247,2.6,5.6,52,0.00,,,0.00,Rainwise IP-100,2013-03-04 13:27:00,
2013-03-04 08:32:00,30.9,16.0,29.76,NW,315,5.1,7.2,52,0.00,,,0.00,Rainwise IP-100,2013-03-04 13:32:00,
2013-03-04 08:37:00,31.0,16.0,29.75,SW,225,3.7,7.7,52,0.00,,,0.00,Rainwise IP-100,2013-03-04 13:37:00,
2013-03-04 08:42:00,30.9,16.0,29.75,WSW,247,4.7,8.6,52,0.00,,,0.00,Rainwise IP-100,2013-03-04 13:42:00,
2013-03-04 08:47:00,30.9,16.0,29.75,WSW,247,5.1,9.1,52,0.00,,,0.00,Rainwise IP-100,2013-03-04 13:47:00,
2013-03-04 08:52:00,30.8,16.0,29.75,WSW,247,0.0,9.3,52,0.00,,,0.00,Rainwise IP-100,2013-03-04 13:52:00,
2013-03-04 08:58:00,30.9,16.0,29.75,NNE,22,0.0,6.1,52,0.00,,,0.00,Rainwise IP-100,2013-03-04 13:58:00,
2013-03-04 09:03:00,31.2,16.0,29.76,WSW,247,1.4,9.1,52,0.00,,,0.00,Rainwise IP-100,2013-03-04 14:03:00,
2013-03-04 09:08:00,31.4,16.0,29.76,West,270,5.4,7.5,51,0.00,,,0.00,Rainwise IP-100,2013-03-04 14:08:00,
2013-03-04 09:13:00,31.6,16.0,29.75,WSW,247,2.1,9.1,51,0.00,,,0.00,Rainwise IP-100,2013-03-04 14:13:00,
2013-03-04 09:18:00,31.9,16.0,29.76,WSW,247,1.9,8.6,51,0.00,,,0.00,Rainwise IP-100,2013-03-04 14:18:00,
2013-03-04 09:23:00,32.1,16.0,29.75,WSW,247,3.0,7.5,51,0.00,,,0.00,Rainwise IP-100,2013-03-04 14:23:00,
2013-03-04 09:28:00,32.5,18.0,29.75,WSW,247,2.8,5.8,50,0.00,,,0.00,Rainwise IP-100,2013-03-04 14:28:00,
2013-03-04 09:33:00,32.9,18.0,29.76,SSW,202,1.2,6.1,50,0.00,,,0.00,Rainwise IP-100,2013-03-04 14:33:00,
2013-03-04 09:38:00,33.3,16.0,29.76,West,270,1.6,8.2,49,0.00,,,0.00,Rainwise IP-100,2013-03-04 14:38:00,
2013-03-04 09:43:00,33.9,18.0,29.76,SSW,202,0.0,4.9,49,0.00,,,0.00,Rainwise IP-100,2013-03-04 14:43:00,
2013-03-04 09:48:00,34.5,18.0,29.75,WSW,247,2.8,10.0,48,0.00,,,0.00,Rainwise IP-100,2013-03-04 14:48:00,
2013-03-04 09:53:00,34.7,16.0,29.75,West,270,2.6,7.9,47,0.00,,,0.00,Rainwise IP-100,2013-03-04 14:53:00,
2013-03-04 09:59:00,34.7,16.0,29.75,East,90,1.4,10.7,47,0.00,,,0.00,Rainwise IP-100,2013-03-04 14:59:00,
2013-03-04 10:04:00,34.9,16.0,29.75,West,270,2.3,7.2,47,0.00,,,0.00,Rainwise IP-100,2013-03-04 15:04:00,
2013-03-04 10:09:00,35.2,16.0,29.75,WSW,247,2.8,6.1,47,0.00,,,0.00,Rainwise IP-100,2013-03-04 15:09:00,
2013-03-04 10:14:00,35.5,18.0,29.76,WSW,247,1.9,5.8,47,0.00,,,0.00,Rainwise IP-100,2013-03-04 15:14:00,
2013-03-04 10:19:00,35.9,18.0,29.76,SW,225,0.0,6.5,47,0.00,,,0.00,Rainwise IP-100,2013-03-04 15:19:00,
2013-03-04 10:24:00,36.2,18.0,29.75,WSW,247,3.7,7.5,46,0.00,,,0.00,Rainwise IP-100,2013-03-04 15:24:00,
2013-03-04 10:29:00,36.4,16.0,29.75,West,270,1.9,7.9,45,0.00,,,0.00,Rainwise IP-100,2013-03-04 15:29:00,
2013-03-04 10:34:00,36.5,18.0,29.75,WSW,247,4.7,6.1,45,0.00,,,0.00,Rainwise IP-100,2013-03-04 15:34:00,
2013-03-04 10:39:00,36.8,18.0,29.75,WSW,247,1.9,8.4,45,0.00,,,0.00,Rainwise IP-100,2013-03-04 15:39:00,
2013-03-04 10:44:00,37.2,18.0,29.76,SW,225,1.9,8.4,45,0.00,,,0.00,Rainwise IP-100,2013-03-04 15:44:00,
2013-03-04 10:49:00,37.6,18.0,29.76,WSW,247,3.3,6.5,44,0.00,,,0.00,Rainwise IP-100,2013-03-04 15:49:00,
2013-03-04 10:54:00,38.2,18.0,29.75,West,270,2.6,6.3,44,0.00,,,0.00,Rainwise IP-100,2013-03-04 15:54:00,
2013-03-04 11:00:00,38.8,18.0,29.76,WSW,247,3.5,4.9,43,0.00,,,0.00,Rainwise IP-100,2013-03-04 16:00:00,
2013-03-04 11:05:00,39.3,18.0,29.76,WSW,247,1.9,7.5,43,0.00,,,0.00,Rainwise IP-100,2013-03-04 16:05:00,
2013-03-04 11:10:00,39.5,21.0,29.76,SW,225,4.2,5.8,43,0.00,,,0.00,Rainwise IP-100,2013-03-04 16:10:00,
2013-03-04 11:15:00,39.7,21.0,29.76,WSW,247,2.3,6.8,42,0.00,,,0.00,Rainwise IP-100,2013-03-04 16:15:00,
2013-03-04 11:20:00,40.0,21.0,29.75,WSW,247,2.1,5.6,42,0.00,,,0.00,Rainwise IP-100,2013-03-04 16:20:00,
2013-03-04 11:25:00,40.5,21.0,29.75,WSW,247,5.1,6.5,42,0.00,,,0.00,Rainwise IP-100,2013-03-04 16:25:00,
2013-03-04 11:30:00,40.8,21.0,29.75,WSW,247,0.0,8.6,42,0.00,,,0.00,Rainwise IP-100,2013-03-04 16:30:00,
2013-03-04 11:35:00,40.5,21.0,29.75,WSW,247,3.3,6.8,41,0.00,,,0.00,Rainwise IP-100,2013-03-04 16:35:00,
2013-03-04 11:40:00,40.3,21.0,29.75,West,270,2.8,7.7,42,0.00,,,0.00,Rainwise IP-100,2013-03-04 16:40:00,
2013-03-04 11:45:00,40.3,21.0,29.74,SSW,202,3.3,7.2,42,0.00,,,0.00,Rainwise IP-100,2013-03-04 16:45:00,
2013-03-04 11:50:00,40.2,21.0,29.75,SSW,202,4.4,7.5,42,0.00,,,0.00,Rainwise IP-100,2013-03-04 16:50:00,
2013-03-04 11:55:00,39.8,21.0,29.74,SSW,202,0.0,8.2,42,0.00,,,0.00,Rainwise IP-100,2013-03-04 16:55:00,
2013-03-04 12:01:00,39.7,21.0,29.74,WSW,247,0.0,7.7,43,0.00,,,0.00,Rainwise IP-100,2013-03-04 17:01:00,
2013-03-04 12:06:00,39.5,21.0,29.74,WSW,247,2.8,7.9,43,0.00,,,0.00,Rainwise IP-100,2013-03-04 17:06:00,
2013-03-04 12:11:00,39.1,21.0,29.74,West,270,4.4,6.8,44,0.00,,,0.00,Rainwise IP-100,2013-03-04 17:11:00,
2013-03-04 12:16:00,38.7,21.0,29.74,WSW,247,4.2,8.2,44,0.00,,,0.00,Rainwise IP-100,2013-03-04 17:16:00,
2013-03-04 12:21:00,38.2,18.0,29.73,SSE,157,0.0,7.2,44,0.00,,,0.00,Rainwise IP-100,2013-03-04 17:21:00,
2013-03-04 12:26:00,38.0,18.0,29.73,WSW,247,1.6,9.1,45,0.00,,,0.00,Rainwise IP-100,2013-03-04 17:26:00,
2013-03-04 12:31:00,37.9,18.0,29.74,SW,225,3.0,7.2,45,0.00,,,0.00,Rainwise IP-100,2013-03-04 17:31:00,
2013-03-04 12:36:00,37.8,18.0,29.74,SW,225,3.0,8.6,45,0.00,,,0.00,Rainwise IP-100,2013-03-04 17:36:00,
2013-03-04 12:41:00,37.6,18.0,29.73,SW,225,2.1,12.1,45,0.00,,,0.00,Rainwise IP-100,2013-03-04 17:41:00,
2013-03-04 12:46:00,37.6,18.0,29.73,WSW,247,3.3,5.8,45,0.00,,,0.00,Rainwise IP-100,2013-03-04 17:46:00,
2013-03-04 12:51:00,37.7,18.0,29.73,West,270,2.1,8.4,45,0.00,,,0.00,Rainwise IP-100,2013-03-04 17:51:00,
2013-03-04 12:56:00,38.0,18.0,29.72,SW,225,2.8,5.4,45,0.00,,,0.00,Rainwise IP-100,2013-03-04 17:56:00,
2013-03-04 13:02:00,38.1,18.0,29.72,West,270,1.6,7.9,45,0.00,,,0.00,Rainwise IP-100,2013-03-04 18:02:00,
2013-03-04 13:07:00,38.2,18.0,29.72,SSW,202,0.0,4.2,45,0.00,,,0.00,Rainwise IP-100,2013-03-04 18:07:00,
2013-03-04 13:12:00,38.3,18.0,29.71,WSW,247,2.8,8.2,45,0.00,,,0.00,Rainwise IP-100,2013-03-04 18:12:00,
2013-03-04 13:17:00,38.4,18.0,29.72,WSW,247,1.4,7.0,45,0.00,,,0.00,Rainwise IP-100,2013-03-04 18:17:00,
2013-03-04 13:22:00,38.4,18.0,29.71,WSW,247,2.3,5.8,45,0.00,,,0.00,Rainwise IP-100,2013-03-04 18:22:00,
2013-03-04 13:27:00,38.5,21.0,29.70,WSW,247,1.2,4.7,45,0.00,,,0.00,Rainwise IP-100,2013-03-04 18:27:00,
2013-03-04 13:29:00,38.6,21.0,29.70,WSW,247,2.6,5.4,45,0.00,,,0.00,Rainwise IP-100,2013-03-04 18:29:00,
2013-03-04 13:30:00,38.6,21.0,29.71,WSW,247,4.0,5.6,45,0.00,,,0.00,Rainwise IP-100,2013-03-04 18:30:00,
2013-03-04 13:31:00,38.6,21.0,29.70,WSW,247,2.6,9.8,45,0.00,,,0.00,Rainwise IP-100,2013-03-04 18:31:00,
2013-03-04 13:36:00,38.5,21.0,29.69,WSW,247,2.3,7.5,45,0.00,,,0.00,Rainwise IP-100,2013-03-04 18:36:00,
2013-03-04 13:41:00,38.5,21.0,29.70,WSW,247,2.3,7.0,45,0.00,,,0.00,Rainwise IP-100,2013-03-04 18:41:00,
2013-03-04 13:46:00,38.6,21.0,29.70,WSW,247,2.1,6.5,45,0.00,,,0.00,Rainwise IP-100,2013-03-04 18:46:00,
2013-03-04 13:51:00,38.7,21.0,29.70,WSW,247,1.2,6.1,44,0.00,,,0.00,Rainwise IP-100,2013-03-04 18:51:00,
2013-03-04 13:57:00,38.9,21.0,29.70,SW,225,1.4,4.2,44,0.00,,,0.00,Rainwise IP-100,2013-03-04 18:57:00,
2013-03-04 14:02:00,39.2,21.0,29.70,WSW,247,3.5,6.5,44,0.00,,,0.00,Rainwise IP-100,2013-03-04 19:02:00,
2013-03-04 14:07:00,39.3,21.0,29.70,SW,225,3.5,5.4,44,0.00,,,0.00,Rainwise IP-100,2013-03-04 19:07:00,
2013-03-04 14:12:00,39.3,21.0,29.70,WSW,247,1.4,6.3,44,0.00,,,0.00,Rainwise IP-100,2013-03-04 19:12:00,
2013-03-04 14:17:00,39.4,21.0,29.69,WSW,247,3.0,4.2,44,0.00,,,0.00,Rainwise IP-100,2013-03-04 19:17:00,
2013-03-04 14:22:00,39.6,21.0,29.70,SW,225,3.5,6.3,44,0.00,,,0.00,Rainwise IP-100,2013-03-04 19:22:00,
2013-03-04 14:27:00,39.7,21.0,29.70,SSW,202,3.7,7.2,43,0.00,,,0.00,Rainwise IP-100,2013-03-04 19:27:00,
2013-03-04 14:32:00,39.9,21.0,29.70,SW,225,4.4,7.2,43,0.00,,,0.00,Rainwise IP-100,2013-03-04 19:32:00,
2013-03-04 14:37:00,40.0,21.0,29.70,WSW,247,2.3,4.9,43,0.00,,,0.00,Rainwise IP-100,2013-03-04 19:37:00,
2013-03-04 14:42:00,40.0,21.0,29.70,WSW,247,2.8,6.5,43,0.00,,,0.00,Rainwise IP-100,2013-03-04 19:42:00,
2013-03-04 14:47:00,40.0,21.0,29.70,SW,225,0.0,6.5,42,0.00,,,0.00,Rainwise IP-100,2013-03-04 19:47:00,
2013-03-04 14:52:00,40.1,21.0,29.69,WSW,247,2.8,4.4,42,0.00,,,0.00,Rainwise IP-100,2013-03-04 19:52:00,
2013-03-04 14:58:00,40.2,21.0,29.70,SW,225,2.3,6.5,42,0.00,,,0.00,Rainwise IP-100,2013-03-04 19:58:00,
2013-03-04 15:03:00,40.2,21.0,29.69,WSW,247,1.9,7.7,42,0.00,,,0.00,Rainwise IP-100,2013-03-04 20:03:00,
2013-03-04 15:08:00,40.3,21.0,29.69,West,270,1.9,6.8,42,0.00,,,0.00,Rainwise IP-100,2013-03-04 20:08:00,
2013-03-04 15:13:00,40.5,21.0,29.69,West,270,1.2,6.8,42,0.00,,,0.00,Rainwise IP-100,2013-03-04 20:13:00,
2013-03-04 15:18:00,40.7,21.0,29.70,SW,225,2.6,7.0,41,0.00,,,0.00,Rainwise IP-100,2013-03-04 20:18:00,
2013-03-04 15:23:00,40.8,21.0,29.69,WSW,247,1.6,4.9,41,0.00,,,0.00,Rainwise IP-100,2013-03-04 20:23:00,
2013-03-04 15:28:00,40.9,18.0,29.69,West,270,1.9,4.2,40,0.00,,,0.00,Rainwise IP-100,2013-03-04 20:28:00,
2013-03-04 15:33:00,41.0,18.0,29.69,WSW,247,3.7,4.9,40,0.00,,,0.00,Rainwise IP-100,2013-03-04 20:33:00,
2013-03-04 15:38:00,41.0,18.0,29.69,WSW,247,1.4,6.8,40,0.00,,,0.00,Rainwise IP-100,2013-03-04 20:38:00,
2013-03-04 15:43:00,41.0,18.0,29.69,WSW,247,2.1,7.2,40,0.00,,,0.00,Rainwise IP-100,2013-03-04 20:43:00,
2013-03-04 15:48:00,41.1,18.0,29.69,SW,225,1.9,7.2,40,0.00,,,0.00,Rainwise IP-100,2013-03-04 20:48:00,
2013-03-04 15:54:00,41.1,18.0,29.70,WSW,247,1.9,5.6,40,0.00,,,0.00,Rainwise IP-100,2013-03-04 20:54:00,
2013-03-04 15:59:00,41.2,18.0,29.69,WSW,247,0.0,4.7,40,0.00,,,0.00,Rainwise IP-100,2013-03-04 20:59:00,
2013-03-04 16:04:00,41.3,18.0,29.69,SW,225,0.0,3.0,40,0.00,,,0.00,Rainwise IP-100,2013-03-04 21:04:00,
2013-03-04 16:09:00,41.5,21.0,29.69,South,180,0.0,6.5,41,0.00,,,0.00,Rainwise IP-100,2013-03-04 21:09:00,
2013-03-04 16:14:00,41.6,21.0,29.69,WSW,247,1.4,6.8,40,0.00,,,0.00,Rainwise IP-100,2013-03-04 21:14:00,
2013-03-04 16:19:00,41.6,21.0,29.69,WSW,247,4.9,7.2,40,0.00,,,0.00,Rainwise IP-100,2013-03-04 21:19:00,
2013-03-04 16:24:00,41.4,18.0,29.69,WSW,247,3.0,5.8,40,0.00,,,0.00,Rainwise IP-100,2013-03-04 21:24:00,
2013-03-04 16:29:00,41.3,18.0,29.70,SW,225,3.3,5.1,40,0.00,,,0.00,Rainwise IP-100,2013-03-04 21:29:00,
2013-03-04 16:34:00,41.2,18.0,29.70,WSW,247,1.2,4.7,40,0.00,,,0.00,Rainwise IP-100,2013-03-04 21:34:00,
2013-03-04 16:39:00,41.2,18.0,29.70,WSW,247,4.0,7.0,39,0.00,,,0.00,Rainwise IP-100,2013-03-04 21:39:00,
2013-03-04 16:45:00,41.0,18.0,29.70,WSW,247,2.6,5.1,39,0.00,,,0.00,Rainwise IP-100,2013-03-04 21:45:00,
2013-03-04 16:50:00,41.0,18.0,29.70,WSW,247,0.0,9.1,39,0.00,,,0.00,Rainwise IP-100,2013-03-04 21:50:00,
2013-03-04 16:55:00,41.0,18.0,29.71,WSW,247,1.6,6.1,38,0.00,,,0.00,Rainwise IP-100,2013-03-04 21:55:00,
2013-03-04 17:00:00,41.0,18.0,29.71,SW,225,0.0,6.1,38,0.00,,,0.00,Rainwise IP-100,2013-03-04 22:00:00,
2013-03-04 17:05:00,41.0,18.0,29.71,SW,225,0.0,6.1,39,0.00,,,0.00,Rainwise IP-100,2013-03-04 22:05:00,
2013-03-04 17:10:00,40.9,18.0,29.71,WSW,247,1.4,5.4,39,0.00,,,0.00,Rainwise IP-100,2013-03-04 22:10:00,
2013-03-04 17:15:00,40.7,18.0,29.71,WSW,247,0.0,4.7,39,0.00,,,0.00,Rainwise IP-100,2013-03-04 22:15:00,
2013-03-04 17:20:00,40.5,18.0,29.71,WSW,247,0.0,3.7,39,0.00,,,0.00,Rainwise IP-100,2013-03-04 22:20:00,
2013-03-04 17:25:00,40.4,18.0,29.72,WSW,247,2.6,3.3,39,0.00,,,0.00,Rainwise IP-100,2013-03-04 22:25:00,
2013-03-04 17:30:00,40.2,18.0,29.72,West,270,0.0,6.1,40,0.00,,,0.00,Rainwise IP-100,2013-03-04 22:30:00,
2013-03-04 17:35:00,40.1,18.0,29.72,SW,225,2.1,3.0,39,0.00,,,0.00,Rainwise IP-100,2013-03-04 22:35:00,
2013-03-04 17:40:00,39.9,18.0,29.72,SW,225,1.2,4.4,39,0.00,,,0.00,Rainwise IP-100,2013-03-04 22:40:00,
2013-03-04 17:46:00,39.8,18.0,29.72,WSW,247,1.4,5.1,39,0.00,,,0.00,Rainwise IP-100,2013-03-04 22:46:00,
2013-03-04 17:51:00,39.7,18.0,29.72,SSW,202,1.9,5.4,39,0.00,,,0.00,Rainwise IP-100,2013-03-04 22:51:00,
2013-03-04 17:56:00,39.5,18.0,29.72,WSW,247,0.0,3.5,39,0.00,,,0.00,Rainwise IP-100,2013-03-04 22:56:00,
2013-03-04 18:01:00,39.4,16.0,29.72,West,270,3.5,3.5,39,0.00,,,0.00,Rainwise IP-100,2013-03-04 23:01:00,
2013-03-04 18:06:00,39.3,16.0,29.72,West,270,1.4,5.8,39,0.00,,,0.00,Rainwise IP-100,2013-03-04 23:06:00,
2013-03-04 18:11:00,39.2,16.0,29.72,WSW,247,1.6,4.2,39,0.00,,,0.00,Rainwise IP-100,2013-03-04 23:11:00,
2013-03-04 18:16:00,39.1,16.0,29.72,WSW,247,0.0,3.5,39,0.00,,,0.00,Rainwise IP-100,2013-03-04 23:16:00,
2013-03-04 18:21:00,39.0,18.0,29.72,SSW,202,5.1,6.1,40,0.00,,,0.00,Rainwise IP-100,2013-03-04 23:21:00,
2013-03-04 18:26:00,38.8,18.0,29.72,SSW,202,0.0,5.6,40,0.00,,,0.00,Rainwise IP-100,2013-03-04 23:26:00,
2013-03-04 18:31:00,38.7,18.0,29.73,WSW,247,1.9,4.7,40,0.00,,,0.00,Rainwise IP-100,2013-03-04 23:31:00,
2013-03-04 18:36:00,38.5,18.0,29.73,SW,225,0.0,2.6,40,0.00,,,0.00,Rainwise IP-100,2013-03-04 23:36:00,
2013-03-04 18:41:00,38.3,16.0,29.74,SW,225,0.0,2.3,41,0.00,,,0.00,Rainwise IP-100,2013-03-04 23:41:00,
2013-03-04 18:47:00,38.1,18.0,29.74,WSW,247,0.0,3.0,42,0.00,,,0.00,Rainwise IP-100,2013-03-04 23:47:00,
2013-03-04 18:52:00,37.9,18.0,29.74,SW,225,0.0,3.5,43,0.00,,,0.00,Rainwise IP-100,2013-03-04 23:52:00,
2013-03-04 18:57:00,37.6,18.0,29.74,SW,225,0.0,3.7,43,0.00,,,0.00,Rainwise IP-100,2013-03-04 23:57:00,
2013-03-04 19:02:00,37.4,16.0,29.74,SW,225,0.0,2.3,43,0.00,,,0.00,Rainwise IP-100,2013-03-05 00:02:00,
2013-03-04 19:07:00,37.3,16.0,29.74,SW,225,0.0,1.6,43,0.00,,,0.00,Rainwise IP-100,2013-03-05 00:07:00,
2013-03-04 19:12:00,37.1,18.0,29.74,SW,225,0.0,2.1,44,0.00,,,0.00,Rainwise IP-100,2013-03-05 00:12:00,
2013-03-04 19:17:00,36.8,18.0,29.74,SW,225,0.0,1.2,46,0.00,,,0.00,Rainwise IP-100,2013-03-05 00:17:00,
2013-03-04 19:22:00,36.6,21.0,29.75,SW,225,0.0,2.1,48,0.00,,,0.00,Rainwise IP-100,2013-03-05 00:22:00,
2013-03-04 19:27:00,36.3,21.0,29.75,SW,225,0.0,1.6,50,0.00,,,0.00,Rainwise IP-100,2013-03-05 00:27:00,
2013-03-04 19:32:00,36.1,18.0,29.75,SW,225,0.0,1.4,49,0.00,,,0.00,Rainwise IP-100,2013-03-05 00:32:00,
2013-03-04 19:37:00,35.9,18.0,29.75,SW,225,0.0,1.2,46,0.00,,,0.00,Rainwise IP-100,2013-03-05 00:37:00,
2013-03-04 19:42:00,35.7,18.0,29.75,SW,225,0.0,0.0,48,0.00,,,0.00,Rainwise IP-100,2013-03-05 00:42:00,
2013-03-04 19:48:00,35.5,21.0,29.76,SW,225,0.0,0.0,52,0.00,,,0.00,Rainwise IP-100,2013-03-05 00:48:00,
2013-03-04 19:53:00,35.3,18.0,29.75,SW,225,0.0,1.2,51,0.00,,,0.00,Rainwise IP-100,2013-03-05 00:53:00,
2013-03-04 19:58:00,35.0,18.0,29.76,SW,225,0.0,1.9,50,0.00,,,0.00,Rainwise IP-100,2013-03-05 00:58:00,
2013-03-04 20:03:00,34.8,21.0,29.76,SW,225,0.0,0.0,53,0.00,,,0.00,Rainwise IP-100,2013-03-05 01:03:00,
2013-03-04 20:08:00,34.6,23.0,29.76,SW,225,0.0,0.0,59,0.00,,,0.00,Rainwise IP-100,2013-03-05 01:08:00,
2013-03-04 20:13:00,34.2,23.0,29.76,SW,225,0.0,0.0,62,0.00,,,0.00,Rainwise IP-100,2013-03-05 01:13:00,
2013-03-04 20:18:00,33.8,23.0,29.77,SW,225,0.0,0.0,62,0.00,,,0.00,Rainwise IP-100,2013-03-05 01:18:00,
2013-03-04 20:23:00,33.5,24.0,29.77,SW,225,0.0,0.0,63,0.00,,,0.00,Rainwise IP-100,2013-03-05 01:23:00,
2013-03-04 20:28:00,33.1,23.0,29.77,SW,225,0.0,0.0,63,0.00,,,0.00,Rainwise IP-100,2013-03-05 01:28:00,
2013-03-04 20:33:00,32.8,23.0,29.77,SW,225,0.0,0.0,64,0.00,,,0.00,Rainwise IP-100,2013-03-05 01:33:00,
2013-03-04 20:38:00,32.6,24.0,29.77,SW,225,0.0,0.0,66,0.00,,,0.00,Rainwise IP-100,2013-03-05 01:38:00,
2013-03-04 20:43:00,32.3,23.0,29.77,SW,225,0.0,0.0,67,0.00,,,0.00,Rainwise IP-100,2013-03-05 01:43:00,
2013-03-04 20:49:00,32.0,23.0,29.77,SW,225,0.0,0.0,68,0.00,,,0.00,Rainwise IP-100,2013-03-05 01:49:00,
2013-03-04 20:54:00,31.8,23.0,29.77,SW,225,0.0,0.0,68,0.00,,,0.00,Rainwise IP-100,2013-03-05 01:54:00,
2013-03-04 20:59:00,31.4,23.0,29.77,SW,225,0.0,0.0,68,0.00,,,0.00,Rainwise IP-100,2013-03-05 01:59:00,
2013-03-04 21:04:00,31.1,23.0,29.77,SW,225,0.0,0.0,68,0.00,,,0.00,Rainwise IP-100,2013-03-05 02:04:00,
2013-03-04 21:09:00,30.8,23.0,29.77,SW,225,0.0,0.0,69,0.00,,,0.00,Rainwise IP-100,2013-03-05 02:09:00,
2013-03-04 21:14:00,30.6,23.0,29.77,SW,225,0.0,0.0,70,0.00,,,0.00,Rainwise IP-100,2013-03-05 02:14:00,
2013-03-04 21:19:00,30.2,23.0,29.77,SW,225,0.0,0.0,70,0.00,,,0.00,Rainwise IP-100,2013-03-05 02:19:00,
2013-03-04 21:24:00,29.9,23.0,29.78,SW,225,0.0,0.0,71,0.00,,,0.00,Rainwise IP-100,2013-03-05 02:24:00,
2013-03-04 21:29:00,29.5,23.0,29.77,SW,225,0.0,0.0,72,0.00,,,0.00,Rainwise IP-100,2013-03-05 02:29:00,
2013-03-04 21:34:00,29.2,21.0,29.77,SW,225,0.0,0.0,71,0.00,,,0.00,Rainwise IP-100,2013-03-05 02:34:00,
2013-03-04 21:39:00,29.1,21.0,29.78,SW,225,0.0,0.0,71,0.00,,,0.00,Rainwise IP-100,2013-03-05 02:39:00,
2013-03-04 21:44:00,28.9,23.0,29.77,SW,225,0.0,0.0,72,0.00,,,0.00,Rainwise IP-100,2013-03-05 02:44:00,
2013-03-04 21:50:00,28.7,23.0,29.77,SW,225,0.0,0.0,72,0.00,,,0.00,Rainwise IP-100,2013-03-05 02:50:00,
2013-03-04 21:55:00,28.5,21.0,29.77,SW,225,0.0,0.0,71,0.00,,,0.00,Rainwise IP-100,2013-03-05 02:55:00,
2013-03-04 22:00:00,28.3,21.0,29.78,SW,225,0.0,0.0,72,0.00,,,0.00,Rainwise IP-100,2013-03-05 03:00:00,
2013-03-04 22:05:00,28.2,21.0,29.77,SW,225,0.0,0.0,71,0.00,,,0.00,Rainwise IP-100,2013-03-05 03:05:00,
2013-03-04 22:10:00,28.1,21.0,29.77,SW,225,0.0,0.0,70,0.00,,,0.00,Rainwise IP-100,2013-03-05 03:10:00,
2013-03-04 22:15:00,28.0,18.0,29.77,SW,225,0.0,0.0,69,0.00,,,0.00,Rainwise IP-100,2013-03-05 03:15:00,
2013-03-04 22:20:00,27.9,18.0,29.77,SW,225,0.0,0.0,69,0.00,,,0.00,Rainwise IP-100,2013-03-05 03:20:00,
2013-03-04 22:25:00,28.0,18.0,29.77,SW,225,0.0,0.0,69,0.00,,,0.00,Rainwise IP-100,2013-03-05 03:25:00,
2013-03-04 22:30:00,28.0,18.0,29.77,SW,225,0.0,0.0,69,0.00,,,0.00,Rainwise IP-100,2013-03-05 03:30:00,
2013-03-04 22:35:00,28.0,18.0,29.77,SW,225,0.0,0.0,69,0.00,,,0.00,Rainwise IP-100,2013-03-05 03:35:00,
2013-03-04 22:40:00,27.9,18.0,29.77,SW,225,0.0,0.0,69,0.00,,,0.00,Rainwise IP-100,2013-03-05 03:40:00,
2013-03-04 22:45:00,27.9,21.0,29.77,SW,225,0.0,0.0,70,0.00,,,0.00,Rainwise IP-100,2013-03-05 03:45:00,
2013-03-04 22:51:00,28.2,18.0,29.77,SW,225,0.0,0.0,69,0.00,,,0.00,Rainwise IP-100,2013-03-05 03:51:00,
2013-03-04 22:56:00,28.3,18.0,29.77,SW,225,0.0,0.0,69,0.00,,,0.00,Rainwise IP-100,2013-03-05 03:56:00,
2013-03-04 23:01:00,28.2,18.0,29.77,SW,225,0.0,0.0,69,0.00,,,0.00,Rainwise IP-100,2013-03-05 04:01:00,
2013-03-04 23:06:00,28.0,18.0,29.77,SW,225,0.0,0.0,69,0.00,,,0.00,Rainwise IP-100,2013-03-05 04:06:00,
2013-03-04 23:11:00,27.8,18.0,29.77,SW,225,0.0,0.0,69,0.00,,,0.00,Rainwise IP-100,2013-03-05 04:11:00,
2013-03-04 23:16:00,27.7,21.0,29.77,SW,225,0.0,0.0,70,0.00,,,0.00,Rainwise IP-100,2013-03-05 04:16:00,
2013-03-04 23:21:00,27.6,21.0,29.77,SW,225,0.0,0.0,70,0.00,,,0.00,Rainwise IP-100,2013-03-05 04:21:00,
2013-03-04 23:26:00,27.6,21.0,29.77,SW,225,0.0,0.0,71,0.00,,,0.00,Rainwise IP-100,2013-03-05 04:26:00,
2013-03-04 23:31:00,27.8,21.0,29.77,SW,225,0.0,0.0,71,0.00,,,0.00,Rainwise IP-100,2013-03-05 04:31:00,
2013-03-04 23:36:00,28.3,18.0,29.77,SW,225,0.0,0.0,69,0.00,,,0.00,Rainwise IP-100,2013-03-05 04:36:00,
2013-03-04 23:41:00,28.6,21.0,29.77,SW,225,0.0,1.2,69,0.00,,,0.00,Rainwise IP-100,2013-03-05 04:41:00,
2013-03-04 23:46:00,28.5,21.0,29.77,SW,225,0.0,0.0,69,0.00,,,0.00,Rainwise IP-100,2013-03-05 04:46:00,
2013-03-04 23:52:00,28.2,21.0,29.78,SW,225,0.0,0.0,70,0.00,,,0.00,Rainwise IP-100,2013-03-05 04:52:00,
2013-03-04 23:57:00,27.9,21.0,29.78,SW,225,0.0,0.0,71,0.00,,,0.00,Rainwise IP-100,2013-03-05 04:57:00,